owner,sensor,date,latitude,longitude,vertical_datum,wind_speed,wind_to_direction,wind_speed_of_gust,qcFlag 
ADCP,ioos:station:wmo:42376:1,2011-12-11T20:00:00Z,29.1080,-87.9440,1.0,7.3,28.0,99.0,'11111222,11111222,11144222' 
ADCP,ioos:station:wmo:42376:1,2011-12-11T20:20:00Z,29.1080,-87.9440,1.0,7.3,28.0,99.0,'11111222,11111222,11144222' 
ADCP,ioos:station:wmo:42376:1,2011-12-11T20:40:00Z,29.1080,-87.9440,1.0,6.6,21.0,99.0,'11111222,11111222,11144222' 
ADCP,ioos:station:wmo:42376:1,2011-12-11T21:00:00Z,29.1080,-87.9440,1.0,6.9,23.0,99.0,'11111222,11111222,11144222' 
ADCP,ioos:station:wmo:42376:1,2011-12-11T21:20:00Z,29.1080,-87.9440,1.0,6.9,23.0,99.0,'11111222,11111222,11144222' 
ADCP,ioos:station:wmo:42376:1,2011-12-11T21:40:00Z,29.1080,-87.9440,1.0,8.8,33.0,99.0,'11111222,11111222,11144222' 
ADCP,ioos:station:wmo:42376:1,2011-12-11T22:00:00Z,29.1080,-87.9440,1.0,8.5,30.0,99.0,'11111222,11111222,11144222' 
ADCP,ioos:station:wmo:42376:1,2011-12-11T22:40:00Z,29.1080,-87.9440,1.0,9.1,38.0,99.0,'11111222,11111222,11144222' 
ADCP,ioos:station:wmo:42376:1,2011-12-11T23:00:00Z,29.1080,-87.9440,1.0,9.3,43.0,99.0,'11111222,11111222,11144222' 
ADCP,ioos:station:wmo:42376:1,2011-12-11T23:20:00Z,29.1080,-87.9440,1.0,9.3,43.0,99.0,'11111222,11111222,11144222' 
ADCP,ioos:station:wmo:42376:1,2011-12-11T23:40:00Z,29.1080,-87.9440,1.0,8.8,36.0,99.0,'11111222,11111222,11144222' 
ADCP,ioos:station:wmo:42376:1,2011-12-12T00:00:00Z,29.1080,-87.9440,1.0,8.7,30.0,99.0,'11111222,11111222,11144222' 
ADCP,ioos:station:wmo:42376:1,2011-12-12T00:20:00Z,29.1080,-87.9440,1.0,8.7,30.0,99.0,'11111222,11111222,11144222' 
ADCP,ioos:station:wmo:42376:1,2011-12-12T01:00:00Z,29.1080,-87.9440,1.0,8.2,32.0,99.0,'11111222,11111222,11144222' 
ADCP,ioos:station:wmo:42376:1,2011-12-12T01:20:00Z,29.1080,-87.9440,1.0,8.2,32.0,99.0,'11111222,11111222,11144222' 
ADCP,ioos:station:wmo:42376:1,2011-12-12T01:40:00Z,29.1080,-87.9440,1.0,8.0,28.0,99.0,'11111222,11111222,11144222' 
ADCP,ioos:station:wmo:42376:1,2011-12-12T02:20:00Z,29.1080,-87.9440,1.0,7.7,29.0,99.0,'11111222,11111222,11144222' 
ADCP,ioos:station:wmo:42376:1,2011-12-12T02:40:00Z,29.1080,-87.9440,1.0,7.9,31.0,99.0,'11111222,11111222,11144222' 
ADCP,ioos:station:wmo:42376:1,2011-12-12T03:20:00Z,29.1080,-87.9440,1.0,7.5,31.0,99.0,'11111222,11111222,11144222' 
ADCP,ioos:station:wmo:42376:1,2011-12-12T03:40:00Z,29.1080,-87.9440,1.0,7.1,35.0,99.0,'11111222,11111222,11144222' 
ADCP,ioos:station:wmo:42376:1,2011-12-12T04:00:00Z,29.1080,-87.9440,1.0,7.4,34.0,99.0,'11111222,11111222,11144222' 
ADCP,ioos:station:wmo:42376:1,2011-12-12T04:20:00Z,29.1080,-87.9440,1.0,7.4,34.0,99.0,'11111222,11111222,11144222' 
ADCP,ioos:station:wmo:42376:1,2011-12-12T04:40:00Z,29.1080,-87.9440,1.0,7.4,35.0,99.0,'11111222,11111222,11144222' 
ADCP,ioos:station:wmo:42376:1,2011-12-12T05:00:00Z,29.1080,-87.9440,1.0,6.9,38.0,99.0,'11111222,11111222,11144222' 
ADCP,ioos:station:wmo:42376:1,2011-12-12T05:20:00Z,29.1080,-87.9440,1.0,6.9,38.0,99.0,'11111222,11111222,11144222' 
ADCP,ioos:station:wmo:42376:1,2011-12-12T05:40:00Z,29.1080,-87.9440,1.0,6.9,36.0,99.0,'11111222,11111222,11144222' 
ADCP,ioos:station:wmo:42376:1,2011-12-12T06:00:00Z,29.1080,-87.9440,1.0,7.1,34.0,99.0,'11111222,11111222,11144222' 
ADCP,ioos:station:wmo:42376:1,2011-12-12T06:20:00Z,29.1080,-87.9440,1.0,7.1,34.0,99.0,'11111222,11111222,11144222' 
ADCP,ioos:station:wmo:42376:1,2011-12-12T07:00:00Z,29.1080,-87.9440,1.0,6.6,50.0,99.0,'11111222,11111222,11144222' 
ADCP,ioos:station:wmo:42376:1,2011-12-12T07:20:00Z,29.1080,-87.9440,1.0,6.6,50.0,99.0,'11111222,11111222,11144222' 
ADCP,ioos:station:wmo:42376:1,2011-12-12T07:40:00Z,29.1080,-87.9440,1.0,6.2,50.0,99.0,'11111222,11111222,11144222' 
ADCP,ioos:station:wmo:42376:1,2011-12-12T08:00:00Z,29.1080,-87.9440,1.0,6.7,45.0,99.0,'11111222,11111222,11144222' 
ADCP,ioos:station:wmo:42376:1,2011-12-12T08:20:00Z,29.1080,-87.9440,1.0,6.7,45.0,99.0,'11111222,11111222,11144222' 
ADCP,ioos:station:wmo:42376:1,2011-12-12T08:40:00Z,29.1080,-87.9440,1.0,5.8,46.0,99.0,'11111222,11111222,11144222' 
ADCP,ioos:station:wmo:42376:1,2011-12-12T09:00:00Z,29.1080,-87.9440,1.0,5.3,50.0,99.0,'11111222,11111222,11144222' 
ADCP,ioos:station:wmo:42376:1,2011-12-12T09:20:00Z,29.1080,-87.9440,1.0,5.3,50.0,99.0,'11111222,11111222,11144222' 
ADCP,ioos:station:wmo:42376:1,2011-12-12T09:40:00Z,29.1080,-87.9440,1.0,5.9,32.0,99.0,'11111222,11111222,11144222' 
ADCP,ioos:station:wmo:42376:1,2011-12-12T10:00:00Z,29.1080,-87.9440,1.0,6.6,28.0,99.0,'11111222,11111222,11144222' 
ADCP,ioos:station:wmo:42376:1,2011-12-12T10:20:00Z,29.1080,-87.9440,1.0,6.6,28.0,99.0,'11111222,11111222,11144222' 
ADCP,ioos:station:wmo:42376:1,2011-12-12T11:00:00Z,29.1080,-87.9440,1.0,8.6,29.0,99.0,'11111222,11111222,11144222' 
ADCP,ioos:station:wmo:42376:1,2011-12-12T11:20:00Z,29.1080,-87.9440,1.0,8.6,29.0,99.0,'11111222,11111222,11144222' 
ADCP,ioos:station:wmo:42376:1,2011-12-12T11:40:00Z,29.1080,-87.9440,1.0,8.6,29.0,99.0,'11111222,11111222,11144222' 
ADCP,ioos:station:wmo:42376:1,2011-12-12T12:00:00Z,29.1080,-87.9440,1.0,8.6,29.0,99.0,'11111222,11111222,11144222' 
ADCP,ioos:station:wmo:42376:1,2011-12-12T12:20:00Z,29.1080,-87.9440,1.0,8.6,29.0,99.0,'11111222,11111222,11144222' 
ADCP,ioos:station:wmo:42376:1,2011-12-12T12:40:00Z,29.1080,-87.9440,1.0,8.6,29.0,99.0,'11111222,11111222,11144222' 
ADCP,ioos:station:wmo:42376:1,2011-12-12T13:00:00Z,29.1080,-87.9440,1.0,8.6,29.0,99.0,'11111222,11111222,11144222' 
ADCP,ioos:station:wmo:42376:1,2011-12-12T13:20:00Z,29.1080,-87.9440,1.0,8.6,29.0,99.0,'11111222,11111222,11144222' 
ADCP,ioos:station:wmo:42376:1,2011-12-12T14:00:00Z,29.1080,-87.9440,1.0,8.6,29.0,99.0,'11111222,11111222,11144222' 
ADCP,ioos:station:wmo:42376:1,2011-12-12T14:20:00Z,29.1080,-87.9440,1.0,8.6,29.0,99.0,'11111222,11111222,11144222' 
ADCP,ioos:station:wmo:42376:1,2011-12-12T14:40:00Z,29.1080,-87.9440,1.0,8.6,29.0,99.0,'11111222,11111222,11144222' 
ADCP,ioos:station:wmo:42376:1,2011-12-12T15:00:00Z,29.1080,-87.9440,1.0,8.6,29.0,99.0,'11111222,11111222,11144222' 
ADCP,ioos:station:wmo:42376:1,2011-12-12T15:20:00Z,29.1080,-87.9440,1.0,8.6,29.0,99.0,'11111222,11111222,11144222' 
ADCP,ioos:station:wmo:42376:1,2011-12-12T16:00:00Z,29.1080,-87.9440,1.0,8.6,29.0,99.0,'11111222,11111222,11144222' 
ADCP,ioos:station:wmo:42376:1,2011-12-12T16:20:00Z,29.1080,-87.9440,1.0,8.6,29.0,99.0,'11111222,11111222,11144222' 
ADCP,ioos:station:wmo:42376:1,2011-12-12T16:40:00Z,29.1080,-87.9440,1.0,8.6,29.0,99.0,'11111222,11111222,11144222' 
ADCP,ioos:station:wmo:42376:1,2011-12-12T17:00:00Z,29.1080,-87.9440,1.0,8.6,29.0,99.0,'11111222,11111222,11144222' 
ADCP,ioos:station:wmo:42376:1,2011-12-12T17:20:00Z,29.1080,-87.9440,1.0,8.6,29.0,99.0,'11111222,11111222,11144222' 
ADCP,ioos:station:wmo:42376:1,2011-12-12T17:40:00Z,29.1080,-87.9440,1.0,8.6,29.0,99.0,'11111222,11111222,11144222' 
ADCP,ioos:station:wmo:42376:1,2011-12-12T18:00:00Z,29.1080,-87.9440,1.0,8.6,29.0,99.0,'11111222,11111222,11144222' 
ADCP,ioos:station:wmo:42376:1,2011-12-12T18:20:00Z,29.1080,-87.9440,1.0,8.6,29.0,99.0,'11111222,11111222,11144222' 
ADCP,ioos:station:wmo:42376:1,2011-12-12T18:40:00Z,29.1080,-87.9440,1.0,8.6,29.0,99.0,'11111222,11111222,11144222' 
ADCP,ioos:station:wmo:42376:1,2011-12-12T19:00:00Z,29.1080,-87.9440,1.0,8.6,29.0,99.0,'11111222,11111222,11144222' 
ADCP,ioos:station:wmo:42376:1,2011-12-12T19:20:00Z,29.1080,-87.9440,1.0,8.6,29.0,99.0,'11111222,11111222,11144222' 
ADCP,ioos:station:wmo:42376:1,2011-12-12T19:40:00Z,29.1080,-87.9440,1.0,8.6,29.0,99.0,'11111222,11111222,11144222' 
ADCP,ioos:station:wmo:42376:1,2011-12-12T20:00:00Z,29.1080,-87.9440,1.0,8.6,29.0,99.0,'11111222,11111222,11144222' 
ADCP,ioos:station:wmo:42376:1,2011-12-12T20:20:00Z,29.1080,-87.9440,1.0,8.6,29.0,99.0,'11111222,11111222,11144222' 
ADCP,ioos:station:wmo:42376:1,2011-12-12T20:40:00Z,29.1080,-87.9440,1.0,8.6,29.0,99.0,'11111222,11111222,11144222' 
ADCP,ioos:station:wmo:42376:1,2011-12-12T21:00:00Z,29.1080,-87.9440,1.0,8.6,29.0,99.0,'11111222,11111222,11144222' 
ADCP,ioos:station:wmo:42376:1,2011-12-12T21:20:00Z,29.1080,-87.9440,1.0,8.6,29.0,99.0,'11111222,11111222,11144222' 
ADCP,ioos:station:wmo:42376:1,2011-12-12T21:40:00Z,29.1080,-87.9440,1.0,8.6,29.0,99.0,'11111222,11111222,11144222' 
ADCP,ioos:station:wmo:42376:1,2011-12-12T22:00:00Z,29.1080,-87.9440,1.0,8.6,29.0,99.0,'11111222,11111222,11144222' 
ADCP,ioos:station:wmo:42376:1,2011-12-12T23:00:00Z,29.1080,-87.9440,1.0,8.6,29.0,99.0,'11111222,11111222,11144222' 
ADCP,ioos:station:wmo:42376:1,2011-12-12T23:20:00Z,29.1080,-87.9440,1.0,8.6,29.0,99.0,'11111222,11111222,11144222' 
ADCP,ioos:station:wmo:42376:1,2011-12-13T00:00:00Z,29.1080,-87.9440,1.0,8.6,29.0,99.0,'11111222,11111222,11144222' 
ADCP,ioos:station:wmo:42376:1,2011-12-13T00:20:00Z,29.1080,-87.9440,1.0,8.6,29.0,99.0,'11111222,11111222,11144222' 
ADCP,ioos:station:wmo:42376:1,2011-12-13T00:40:00Z,29.1080,-87.9440,1.0,8.6,29.0,99.0,'11111222,11111222,11144222' 
ADCP,ioos:station:wmo:42376:1,2011-12-13T01:00:00Z,29.1080,-87.9440,1.0,8.6,29.0,99.0,'11111222,11111222,11144222' 
ADCP,ioos:station:wmo:42376:1,2011-12-13T01:40:00Z,29.1080,-87.9440,1.0,8.6,29.0,99.0,'11111222,11111222,11144222' 
ADCP,ioos:station:wmo:42376:1,2011-12-13T02:00:00Z,29.1080,-87.9440,1.0,8.6,29.0,99.0,'11111222,11111222,11144222' 
ADCP,ioos:station:wmo:42376:1,2011-12-13T02:20:00Z,29.1080,-87.9440,1.0,8.6,29.0,99.0,'11111222,11111222,11144222' 
ADCP,ioos:station:wmo:42376:1,2011-12-13T03:20:00Z,29.1080,-87.9440,1.0,8.6,29.0,99.0,'11111222,11111222,11144222' 
ADCP,ioos:station:wmo:42376:1,2011-12-13T03:40:00Z,29.1080,-87.9440,1.0,8.6,29.0,99.0,'11111222,11111222,11144222' 
ADCP,ioos:station:wmo:42376:1,2011-12-13T04:00:00Z,29.1080,-87.9440,1.0,8.6,29.0,99.0,'11111222,11111222,11144222' 
ADCP,ioos:station:wmo:42376:1,2011-12-13T04:20:00Z,29.1080,-87.9440,1.0,8.6,29.0,99.0,'11111222,11111222,11144222' 
ADCP,ioos:station:wmo:42376:1,2011-12-13T05:20:00Z,29.1080,-87.9440,1.0,8.4,46.0,99.0,'11111222,11111222,11144222' 
ADCP,ioos:station:wmo:42376:1,2011-12-13T05:40:00Z,29.1080,-87.9440,1.0,7.2,55.0,99.0,'11111222,11111222,11144222' 
ADCP,ioos:station:wmo:42376:1,2011-12-13T06:00:00Z,29.1080,-87.9440,1.0,7.6,55.0,99.0,'11111222,11111222,11144222' 
ADCP,ioos:station:wmo:42376:1,2011-12-13T06:40:00Z,29.1080,-87.9440,1.0,7.4,55.0,99.0,'11111222,11111222,11144222' 
ADCP,ioos:station:wmo:42376:1,2011-12-13T07:00:00Z,29.1080,-87.9440,1.0,8.0,61.0,99.0,'11111222,11111222,11144222' 
ADCP,ioos:station:wmo:42376:1,2011-12-13T07:20:00Z,29.1080,-87.9440,1.0,8.0,61.0,99.0,'11111222,11111222,11144222' 
ADCP,ioos:station:wmo:42376:1,2011-12-13T07:40:00Z,29.1080,-87.9440,1.0,6.6,53.0,99.0,'11111222,11111222,11144222' 
ADCP,ioos:station:wmo:42376:1,2011-12-13T08:00:00Z,29.1080,-87.9440,1.0,7.1,47.0,99.0,'11111222,11111222,11144222' 
ADCP,ioos:station:wmo:42376:1,2011-12-13T08:20:00Z,29.1080,-87.9440,1.0,7.1,47.0,99.0,'11111222,11111222,11144222' 
ADCP,ioos:station:wmo:42376:1,2011-12-13T10:00:00Z,29.1080,-87.9440,1.0,7.4,50.0,99.0,'11111222,11111222,11144222' 
ADCP,ioos:station:wmo:42376:1,2011-12-13T10:20:00Z,29.1080,-87.9440,1.0,7.4,50.0,99.0,'11111222,11111222,11144222' 
ADCP,ioos:station:wmo:42376:1,2011-12-13T10:40:00Z,29.1080,-87.9440,1.0,6.8,50.0,99.0,'11111222,11111222,11144222' 
ADCP,ioos:station:wmo:42376:1,2011-12-13T11:00:00Z,29.1080,-87.9440,1.0,7.9,42.0,99.0,'11111222,11111222,11144222' 
ADCP,ioos:station:wmo:42376:1,2011-12-13T11:20:00Z,29.1080,-87.9440,1.0,6.8,50.0,99.0,'11111222,11111222,11144222' 
ADCP,ioos:station:wmo:42376:1,2011-12-13T11:40:00Z,29.1080,-87.9440,1.0,9.6,40.0,99.0,'11111222,11111222,11144222' 
ADCP,ioos:station:wmo:42376:1,2011-12-13T12:00:00Z,29.1080,-87.9440,1.0,9.3,44.0,99.0,'11111222,11111222,11144222' 
ADCP,ioos:station:wmo:42376:1,2011-12-13T12:40:00Z,29.1080,-87.9440,1.0,9.0,52.0,99.0,'11111222,11111222,11144222' 
ADCP,ioos:station:wmo:42376:1,2011-12-13T13:00:00Z,29.1080,-87.9440,1.0,9.2,87.0,99.0,'11111222,11111222,11144222' 
ADCP,ioos:station:wmo:42376:1,2011-12-13T13:20:00Z,29.1080,-87.9440,1.0,9.2,87.0,99.0,'11111222,11111222,11144222' 
ADCP,ioos:station:wmo:42376:1,2011-12-13T14:00:00Z,29.1080,-87.9440,1.0,9.2,51.0,99.0,'11111222,11111222,11144222' 
ADCP,ioos:station:wmo:42376:1,2011-12-13T14:20:00Z,29.1080,-87.9440,1.0,9.2,51.0,99.0,'11111222,11111222,11144222' 
ADCP,ioos:station:wmo:42376:1,2011-12-13T14:40:00Z,29.1080,-87.9440,1.0,9.2,51.0,99.0,'11111222,11111222,11144222' 
ADCP,ioos:station:wmo:42376:1,2011-12-13T15:00:00Z,29.1080,-87.9440,1.0,9.2,51.0,99.0,'11111222,11111222,11144222' 
ADCP,ioos:station:wmo:42376:1,2011-12-13T15:20:00Z,29.1080,-87.9440,1.0,9.2,51.0,99.0,'11111222,11111222,11144222' 
ADCP,ioos:station:wmo:42376:1,2011-12-13T15:40:00Z,29.1080,-87.9440,1.0,9.0,37.0,99.0,'11111222,11111222,11144222' 
ADCP,ioos:station:wmo:42376:1,2011-12-13T16:00:00Z,29.1080,-87.9440,1.0,8.5,42.0,99.0,'11111222,11111222,11144222' 
ADCP,ioos:station:wmo:42376:1,2011-12-13T16:40:00Z,29.1080,-87.9440,1.0,8.6,39.0,99.0,'11111222,11111222,11144222' 
ADCP,ioos:station:wmo:42376:1,2011-12-13T17:00:00Z,29.1080,-87.9440,1.0,8.6,32.0,99.0,'11111222,11111222,11144222' 
ADCP,ioos:station:wmo:42376:1,2011-12-13T17:20:00Z,29.1080,-87.9440,1.0,8.6,32.0,99.0,'11111222,11111222,11144222' 
ADCP,ioos:station:wmo:42376:1,2011-12-13T17:40:00Z,29.1080,-87.9440,1.0,8.6,32.0,99.0,'11111222,11111222,11144222' 
ADCP,ioos:station:wmo:42376:1,2011-12-13T18:00:00Z,29.1080,-87.9440,1.0,8.6,32.0,99.0,'11111222,11111222,11144222' 
ADCP,ioos:station:wmo:42376:1,2011-12-13T18:20:00Z,29.1080,-87.9440,1.0,8.6,32.0,99.0,'11111222,11111222,11144222' 
ADCP,ioos:station:wmo:42376:1,2011-12-13T18:40:00Z,29.1080,-87.9440,1.0,8.0,32.0,99.0,'11111222,11111222,11144222' 
ADCP,ioos:station:wmo:42376:1,2011-12-13T19:00:00Z,29.1080,-87.9440,1.0,7.5,30.0,99.0,'11111222,11111222,11144222' 
ADCP,ioos:station:wmo:42376:1,2011-12-13T19:20:00Z,29.1080,-87.9440,1.0,7.5,30.0,99.0,'11111222,11111222,11144222' 
ADCP,ioos:station:wmo:42376:1,2011-12-13T19:40:00Z,29.1080,-87.9440,1.0,7.3,31.0,99.0,'11111222,11111222,11144222' 
ADCP,ioos:station:wmo:42376:1,2011-12-13T20:00:00Z,29.1080,-87.9440,1.0,7.4,30.0,99.0,'11111222,11111222,11144222' 
ADCP,ioos:station:wmo:42376:1,2011-12-13T20:20:00Z,29.1080,-87.9440,1.0,7.4,30.0,99.0,'11111222,11111222,11144222' 
ADCP,ioos:station:wmo:42376:1,2011-12-13T20:40:00Z,29.1080,-87.9440,1.0,7.7,33.0,99.0,'11111222,11111222,11144222' 
ADCP,ioos:station:wmo:42376:1,2011-12-13T21:00:00Z,29.1080,-87.9440,1.0,6.6,37.0,99.0,'11111222,11111222,11144222' 
ADCP,ioos:station:wmo:42376:1,2011-12-13T21:40:00Z,29.1080,-87.9440,1.0,7.2,49.0,99.0,'11111222,11111222,11144222' 
ADCP,ioos:station:wmo:42376:1,2011-12-13T22:00:00Z,29.1080,-87.9440,1.0,7.7,55.0,99.0,'11111222,11111222,11144222' 
ADCP,ioos:station:wmo:42376:1,2011-12-13T22:20:00Z,29.1080,-87.9440,1.0,7.7,55.0,99.0,'11111222,11111222,11144222' 
ADCP,ioos:station:wmo:42376:1,2011-12-13T22:40:00Z,29.1080,-87.9440,1.0,7.3,55.0,99.0,'11111222,11111222,11144222' 
ADCP,ioos:station:wmo:42376:1,2011-12-13T23:20:00Z,29.1080,-87.9440,1.0,7.2,46.0,99.0,'11111222,11111222,11144222' 
ADCP,ioos:station:wmo:42376:1,2011-12-13T23:40:00Z,29.1080,-87.9440,1.0,7.2,57.0,99.0,'11111222,11111222,11144222' 
ADCP,ioos:station:wmo:42376:1,2011-12-14T00:00:00Z,29.1080,-87.9440,1.0,7.7,68.0,99.0,'11111222,11111222,11144222' 
ADCP,ioos:station:wmo:42376:1,2011-12-14T00:20:00Z,29.1080,-87.9440,1.0,7.7,68.0,99.0,'11111222,11111222,11144222' 
ADCP,ioos:station:wmo:42376:1,2011-12-14T00:40:00Z,29.1080,-87.9440,1.0,8.1,58.0,99.0,'11111222,11111222,11144222' 
ADCP,ioos:station:wmo:42376:1,2011-12-14T01:00:00Z,29.1080,-87.9440,1.0,8.7,60.0,99.0,'11111222,11111222,11144222' 
ADCP,ioos:station:wmo:42376:1,2011-12-14T01:20:00Z,29.1080,-87.9440,1.0,8.7,60.0,99.0,'11111222,11111222,11144222' 
ADCP,ioos:station:wmo:42376:1,2011-12-14T01:40:00Z,29.1080,-87.9440,1.0,7.7,55.0,99.0,'11111222,11111222,11144222' 
ADCP,ioos:station:wmo:42376:1,2011-12-14T02:00:00Z,29.1080,-87.9440,1.0,8.2,58.0,99.0,'11111222,11111222,11144222' 
ADCP,ioos:station:wmo:42376:1,2011-12-14T02:20:00Z,29.1080,-87.9440,1.0,8.2,58.0,99.0,'11111222,11111222,11144222' 
ADCP,ioos:station:wmo:42376:1,2011-12-14T03:00:00Z,29.1080,-87.9440,1.0,8.3,55.0,99.0,'11111222,11111222,11144222' 
ADCP,ioos:station:wmo:42376:1,2011-12-14T03:20:00Z,29.1080,-87.9440,1.0,8.3,55.0,99.0,'11111222,11111222,11144222' 
ADCP,ioos:station:wmo:42376:1,2011-12-14T04:00:00Z,29.1080,-87.9440,1.0,8.3,55.0,99.0,'11111222,11111222,11144222' 
ADCP,ioos:station:wmo:42376:1,2011-12-14T04:20:00Z,29.1080,-87.9440,1.0,8.3,55.0,99.0,'11111222,11111222,11144222' 
ADCP,ioos:station:wmo:42376:1,2011-12-14T05:20:00Z,29.1080,-87.9440,1.0,8.3,55.0,99.0,'11111222,11111222,11144222' 
ADCP,ioos:station:wmo:42376:1,2011-12-14T06:00:00Z,29.1080,-87.9440,1.0,8.3,55.0,99.0,'11111222,11111222,11144222' 
ADCP,ioos:station:wmo:42376:1,2011-12-14T06:20:00Z,29.1080,-87.9440,1.0,8.3,55.0,99.0,'11111222,11111222,11144222' 
ADCP,ioos:station:wmo:42376:1,2011-12-14T07:00:00Z,29.1080,-87.9440,1.0,8.3,55.0,99.0,'11111222,11111222,11144222' 
ADCP,ioos:station:wmo:42376:1,2011-12-14T08:00:00Z,29.1080,-87.9440,1.0,8.3,55.0,99.0,'11111222,11111222,11144222' 
ADCP,ioos:station:wmo:42376:1,2011-12-14T08:20:00Z,29.1080,-87.9440,1.0,8.3,55.0,99.0,'11111222,11111222,11144222' 
ADCP,ioos:station:wmo:42376:1,2011-12-14T09:00:00Z,29.1080,-87.9440,1.0,8.3,55.0,99.0,'11111222,11111222,11144222' 
ADCP,ioos:station:wmo:42376:1,2011-12-14T09:20:00Z,29.1080,-87.9440,1.0,8.3,55.0,99.0,'11111222,11111222,11144222' 
ADCP,ioos:station:wmo:42376:1,2011-12-14T09:40:00Z,29.1080,-87.9440,1.0,8.3,55.0,99.0,'11111222,11111222,11144222' 
ADCP,ioos:station:wmo:42376:1,2011-12-14T10:20:00Z,29.1080,-87.9440,1.0,8.3,55.0,99.0,'11111222,11111222,11144222' 
ADCP,ioos:station:wmo:42376:1,2011-12-14T11:00:00Z,29.1080,-87.9440,1.0,8.3,55.0,99.0,'11111222,11111222,11144222' 
ADCP,ioos:station:wmo:42376:1,2011-12-14T11:20:00Z,29.1080,-87.9440,1.0,8.3,55.0,99.0,'11111222,11111222,11144222' 
ADCP,ioos:station:wmo:42376:1,2011-12-14T11:40:00Z,29.1080,-87.9440,1.0,8.3,55.0,99.0,'11111222,11111222,11144222' 
ADCP,ioos:station:wmo:42376:1,2011-12-14T12:00:00Z,29.1080,-87.9440,1.0,8.3,55.0,99.0,'11111222,11111222,11144222' 
ADCP,ioos:station:wmo:42376:1,2011-12-14T12:20:00Z,29.1080,-87.9440,1.0,8.3,55.0,99.0,'11111222,11111222,11144222' 
ADCP,ioos:station:wmo:42376:1,2011-12-14T12:40:00Z,29.1080,-87.9440,1.0,8.3,55.0,99.0,'11111222,11111222,11144222' 
ADCP,ioos:station:wmo:42376:1,2011-12-14T13:00:00Z,29.1080,-87.9440,1.0,8.3,55.0,99.0,'11111222,11111222,11144222' 
ADCP,ioos:station:wmo:42376:1,2011-12-14T13:40:00Z,29.1080,-87.9440,1.0,8.3,55.0,99.0,'11111222,11111222,11144222' 
ADCP,ioos:station:wmo:42376:1,2011-12-14T14:00:00Z,29.1080,-87.9440,1.0,8.3,55.0,99.0,'11111222,11111222,11144222' 
ADCP,ioos:station:wmo:42376:1,2011-12-14T14:20:00Z,29.1080,-87.9440,1.0,8.3,55.0,99.0,'11111222,11111222,11144222' 
ADCP,ioos:station:wmo:42376:1,2011-12-14T15:00:00Z,29.1080,-87.9440,1.0,8.3,55.0,99.0,'11111222,11111222,11144222' 
ADCP,ioos:station:wmo:42376:1,2011-12-14T15:20:00Z,29.1080,-87.9440,1.0,8.3,55.0,99.0,'11111222,11111222,11144222' 
ADCP,ioos:station:wmo:42376:1,2011-12-14T15:40:00Z,29.1080,-87.9440,1.0,8.3,55.0,99.0,'11111222,11111222,11144222' 
ADCP,ioos:station:wmo:42376:1,2011-12-14T16:00:00Z,29.1080,-87.9440,1.0,8.3,55.0,99.0,'11111222,11111222,11144222' 
ADCP,ioos:station:wmo:42376:1,2011-12-14T16:20:00Z,29.1080,-87.9440,1.0,8.3,55.0,99.0,'11111222,11111222,11144222' 
ADCP,ioos:station:wmo:42376:1,2011-12-14T16:40:00Z,29.1080,-87.9440,1.0,8.3,55.0,99.0,'11111222,11111222,11144222' 
ADCP,ioos:station:wmo:42376:1,2011-12-14T17:00:00Z,29.1080,-87.9440,1.0,8.3,55.0,99.0,'11111222,11111222,11144222' 
ADCP,ioos:station:wmo:42376:1,2011-12-14T17:20:00Z,29.1080,-87.9440,1.0,11.6,85.0,99.0,'11111222,11111222,11144222' 
ADCP,ioos:station:wmo:42376:1,2011-12-14T17:40:00Z,29.1080,-87.9440,1.0,11.1,95.0,99.0,'11111222,11111222,11144222' 
ADCP,ioos:station:wmo:42376:1,2011-12-14T18:00:00Z,29.1080,-87.9440,1.0,8.1,144.0,99.0,'11111222,11111222,11144222' 
ADCP,ioos:station:wmo:42376:1,2011-12-14T18:20:00Z,29.1080,-87.9440,1.0,8.1,144.0,99.0,'11111222,11111222,11144222' 
ADCP,ioos:station:wmo:42376:1,2011-12-14T18:40:00Z,29.1080,-87.9440,1.0,7.7,101.0,99.0,'11111222,11111222,11144222' 
ADCP,ioos:station:wmo:42376:1,2011-12-14T19:00:00Z,29.1080,-87.9440,1.0,8.9,99.0,99.0,'11111222,11111222,11144222' 
ADCP,ioos:station:wmo:42376:1,2011-12-14T19:20:00Z,29.1080,-87.9440,1.0,8.9,99.0,99.0,'11111222,11111222,11144222' 
ADCP,ioos:station:wmo:42376:1,2011-12-14T20:00:00Z,29.1080,-87.9440,1.0,9.2,97.0,99.0,'11111222,11111222,11144222' 
ADCP,ioos:station:wmo:42376:1,2011-12-14T20:40:00Z,29.1080,-87.9440,1.0,8.7,100.0,99.0,'11111222,11111222,11144222' 
ADCP,ioos:station:wmo:42376:1,2011-12-14T21:00:00Z,29.1080,-87.9440,1.0,9.4,99.0,99.0,'11111222,11111222,11144222' 
ADCP,ioos:station:wmo:42376:1,2011-12-14T21:20:00Z,29.1080,-87.9440,1.0,9.4,99.0,99.0,'11111222,11111222,11144222' 
ADCP,ioos:station:wmo:42376:1,2011-12-14T21:40:00Z,29.1080,-87.9440,1.0,9.4,99.0,99.0,'11111222,11111222,11144222' 
ADCP,ioos:station:wmo:42376:1,2011-12-14T22:00:00Z,29.1080,-87.9440,1.0,9.4,99.0,99.0,'11111222,11111222,11144222' 
ADCP,ioos:station:wmo:42376:1,2011-12-14T22:20:00Z,29.1080,-87.9440,1.0,9.4,99.0,99.0,'11111222,11111222,11144222' 
ADCP,ioos:station:wmo:42376:1,2011-12-14T23:00:00Z,29.1080,-87.9440,1.0,9.4,99.0,99.0,'11111222,11111222,11144222' 
ADCP,ioos:station:wmo:42376:1,2011-12-14T23:20:00Z,29.1080,-87.9440,1.0,9.4,99.0,99.0,'11111222,11111222,11144222' 
ADCP,ioos:station:wmo:42376:1,2011-12-15T00:00:00Z,29.1080,-87.9440,1.0,9.4,99.0,99.0,'11111222,11111222,11144222' 
ADCP,ioos:station:wmo:42376:1,2011-12-15T00:20:00Z,29.1080,-87.9440,1.0,9.4,99.0,99.0,'11111222,11111222,11144222' 
ADCP,ioos:station:wmo:42376:1,2011-12-15T00:40:00Z,29.1080,-87.9440,1.0,9.4,99.0,99.0,'11111222,11111222,11144222' 
ADCP,ioos:station:wmo:42376:1,2011-12-15T01:00:00Z,29.1080,-87.9440,1.0,9.4,99.0,99.0,'11111222,11111222,11144222' 
ADCP,ioos:station:wmo:42376:1,2011-12-15T01:20:00Z,29.1080,-87.9440,1.0,9.4,99.0,99.0,'11111222,11111222,11144222' 
ADCP,ioos:station:wmo:42376:1,2011-12-15T01:40:00Z,29.1080,-87.9440,1.0,9.4,99.0,99.0,'11111222,11111222,11144222' 
ADCP,ioos:station:wmo:42376:1,2011-12-15T02:00:00Z,29.1080,-87.9440,1.0,9.4,99.0,99.0,'11111222,11111222,11144222' 
ADCP,ioos:station:wmo:42376:1,2011-12-15T02:20:00Z,29.1080,-87.9440,1.0,9.4,99.0,99.0,'11111222,11111222,11144222' 
ADCP,ioos:station:wmo:42376:1,2011-12-15T02:40:00Z,29.1080,-87.9440,1.0,9.4,99.0,99.0,'11111222,11111222,11144222' 
ADCP,ioos:station:wmo:42376:1,2011-12-15T03:20:00Z,29.1080,-87.9440,1.0,9.4,99.0,99.0,'11111222,11111222,11144222' 
ADCP,ioos:station:wmo:42376:1,2011-12-15T04:00:00Z,29.1080,-87.9440,1.0,9.4,99.0,99.0,'11111222,11111222,11144222' 
ADCP,ioos:station:wmo:42376:1,2011-12-15T04:20:00Z,29.1080,-87.9440,1.0,9.4,99.0,99.0,'11111222,11111222,11144222' 
ADCP,ioos:station:wmo:42376:1,2011-12-15T05:00:00Z,29.1080,-87.9440,1.0,9.4,99.0,99.0,'11111222,11111222,11144222' 
ADCP,ioos:station:wmo:42376:1,2011-12-15T05:20:00Z,29.1080,-87.9440,1.0,9.4,99.0,99.0,'11111222,11111222,11144222' 
ADCP,ioos:station:wmo:42376:1,2011-12-15T05:40:00Z,29.1080,-87.9440,1.0,9.4,99.0,99.0,'11111222,11111222,11144222' 
ADCP,ioos:station:wmo:42376:1,2011-12-15T06:00:00Z,29.1080,-87.9440,1.0,9.4,99.0,99.0,'11111222,11111222,11144222' 
ADCP,ioos:station:wmo:42376:1,2011-12-15T06:20:00Z,29.1080,-87.9440,1.0,9.4,99.0,99.0,'11111222,11111222,11144222' 
ADCP,ioos:station:wmo:42376:1,2011-12-15T07:00:00Z,29.1080,-87.9440,1.0,9.4,99.0,99.0,'11111222,11111222,11144222' 
ADCP,ioos:station:wmo:42376:1,2011-12-15T07:20:00Z,29.1080,-87.9440,1.0,9.4,99.0,99.0,'11111222,11111222,11144222' 
ADCP,ioos:station:wmo:42376:1,2011-12-15T08:00:00Z,29.1080,-87.9440,1.0,9.4,99.0,99.0,'11111222,11111222,11144222' 